Location: Arcueil
(48.7999°N, 2.3326°E)
Time: 14:39:15
(UTC+00:00)

Cosmos 540 Rocket - Pass Details

Date: 03 February 2023
Orbit: 740 x 751 km, 74.1° (Epoch: 26 March)

Event Time Altitude Azimuth Distance (km) Brightness Sun altitude
Rises 18:30:38 0° 335° (NNW) 3,208 7.0 -16.5°
Reaches altitude 10° 18:33:00 10° 334° (NNW) 2,278 6.2 -16.9°
Maximum altitude 18:38:09 76° 250° (WSW) 773 3.6 -17.8°
Drops below altitude 10° 18:43:15 10° 165° (SSE) 2,254 5.8 -18.6°
Sets 18:45:36 0° 164° (SSE) 3,171 6.6 -19.0°
